Flag for Austria Past Weather in Saalfelden am Steinernen Meer, Salzburg, Austria — Yesterday and Last 2 Weeks

Now
59 °F

Passing clouds.


Feels Like: 60 °F
Forecast: 46 / 66 °F
Wind: 3 mph from West

Location: Salzburg-Flughafen

Current Time: Aug 20, 2017 at 9:41:08 pm

Latest Report: Aug 20, 2017 at 8:50 pm


Visibility: N/A

Pressure: 30.24 "Hg (27.71 "Hg at 738m altitude)

Humidity: 77%

Dew Point: 52 °F

Location of Saalfelden am Steinernen MeerLocation

Past Weather in Saalfelden am Steinernen Meer — Graph

°F

Saalfelden am Steinernen Meer Temperature Yesterday

Maximum temperature yesterday: 66 °F (at 12:20 am)
Minimum temperature yesterday: 57 °F (at 9:50 pm)
Average temperature yesterday: 61 °F

High & Low Weather Summary for the Past Weeks

 TemperatureHumidityPressure
High86 °F (Aug 8, 1:50 pm)100% (Aug 8, 1:50 am)30.27 "Hg (Aug 8, 1:50 am)
Low52 °F (Aug 14, 5:50 am)35% (Aug 8, 1:50 pm)29.83 "Hg (Aug 8, 12:50 pm)
Average66 °F77%30.10 "Hg
* Reported Aug 5 7:20 pm — Aug 20 7:50 pm, Saalfelden am Steinernen Meer. Weather by CustomWeather, © 2017

Note: Actual official high and low records may vary slightly from our data, if they occured in-between our weather recording intervals... More about our weather records

Advertising

Saalfelden am Steinernen Meer Weather History for the Previous 24 Hours

Scroll right to see more
 ConditionsComfort  
Time TempWeatherWind HumidityBarometerVisibility
7:50 pm
Sun, Aug 20
63 °FScattered clouds.2 mph68%30.24 "HgN/A
7:20 pm64 °FScattered clouds.5 mph64%30.24 "HgN/A
6:50 pm66 °FScattered clouds.3 mph52%30.24 "HgN/A
6:20 pm66 °FScattered clouds.5 mph49%30.21 "HgN/A
5:50 pm68 °FScattered clouds.8 mph46%30.21 "HgN/A
5:20 pm66 °FScattered clouds.6 mph52%30.21 "HgN/A
4:50 pm66 °FScattered clouds.8 mph52%30.21 "HgN/A
4:20 pm66 °FBroken clouds.8 mph52%30.21 "HgN/A
3:50 pm68 °FBroken clouds.12 mph49%30.21 "HgN/A
3:20 pm68 °FScattered clouds.13 mph56%30.21 "HgN/A
2:50 pm68 °FScattered clouds.9 mph56%30.21 "HgN/A
2:20 pm66 °FScattered clouds.12 mph56%30.24 "HgN/A
1:50 pm68 °FScattered clouds.10 mph49%30.21 "HgN/A
1:20 pm68 °FScattered clouds.9 mph53%30.24 "HgN/A
12:50 pm66 °FScattered clouds.3 mph56%30.24 "HgN/A
12:20 pm66 °FScattered clouds.3 mph60%30.24 "HgN/A
11:50 am63 °FPassing clouds.5 mph68%30.24 "HgN/A
11:20 am61 °FPartly sunny.5 mph77%30.24 "HgN/A
10:50 am61 °FPartly sunny.6 mph72%30.24 "HgN/A
10:20 am57 °FBroken clouds.5 mph82%30.24 "HgN/A
9:20 am55 °FBroken clouds.7 mph94%30.24 "HgN/A
8:50 am54 °FLight rain. Broken clouds.6 mph94%30.24 "HgN/A
8:20 am54 °FRain. Broken clouds.6 mph94%30.24 "HgN/A
7:50 am54 °FRain showers. Broken clouds.7 mph94%30.24 "Hg4 mi
7:20 am55 °FLight rain. Broken clouds.7 mph82%30.21 "HgN/A
6:50 am54 °FSprinkles. Broken clouds.6 mph94%30.21 "HgN/A
6:20 am55 °FStrong thunderstorms. Broken clouds.9 mph94%30.21 "Hg2 mi
5:50 am54 °FPartly cloudy.5 mph94%30.18 "HgN/A
5:20 am54 °FCool.6 mph100%30.18 "HgN/A
4:50 am54 °FPassing clouds.3 mph100%30.18 "HgN/A
4:20 am54 °FPassing clouds.3 mph100%30.18 "HgN/A
3:50 am55 °FPassing clouds.6 mph94%30.18 "HgN/A
3:20 am55 °FPassing clouds.6 mph94%30.18 "HgN/A
2:50 am57 °FPassing clouds.7 mph88%30.18 "HgN/A
2:20 am57 °FPassing clouds.6 mph94%30.18 "HgN/A
1:50 am57 °FPartly cloudy.6 mph94%30.15 "HgN/A
1:20 am57 °FPassing clouds.6 mph94%30.18 "HgN/A
12:50 am57 °FPartly cloudy.9 mph94%30.18 "HgN/A
12:20 am57 °FPartly cloudy.7 mph94%30.15 "HgN/A
11:50 pm
Sat, Aug 19
57 °FPassing clouds.7 mph94%30.18 "HgN/A
11:20 pm57 °FPartly cloudy.6 mph94%30.18 "HgN/A
10:50 pm57 °FPartly cloudy.8 mph94%30.18 "HgN/A
10:20 pm57 °FPartly cloudy.7 mph94%30.18 "HgN/A
9:50 pm57 °FPartly cloudy.8 mph100%30.18 "HgN/A
9:20 pm59 °FSprinkles. Partly cloudy.6 mph88%30.18 "HgN/A
Weather by CustomWeather, © 2017

See weather overviewHow to use our weather pages